Starlink 5456

operational
NORAD ID: 55667 Int'l Des: 2023-021 Owner: SPXS Country: US Constellation: starlink
LEOCIRCULAR

关于 Starlink 5456

正在加载描述...

实时位置

正在加载3D地球...

即将过境

高度历史

Altitude vs Time

uPlot chart will show altitude changes over time

两行轨道根数

1 55667U 23021AR 25306.21968647 .00000933 00000-0 85988-4 0 9993
2 55667 69.9980 125.7396 0002846 270.1196 89.9637 14.98341386150196
Epoch: Nov 2, 2025 • Age: 39 hours

当前状态

高度 576.9 km
速度 7.58 km/s
星下点 33.51°N, 61.08°W
发射日期 Feb 17, 2023
运行时间 2.7 years
类型 internet

技术详情

分类 Payload
质量 305.00 kg
干质量 290.00 kg
总质量 305.00 kg
长度 0.20 m
直径 2.80 m
跨度 9.00 m
形状 Box + pan
制造商 SPXS
平台类型 Starlink
阶段状态 In Orbit
所有者/国家 SPXS/US

大型星座

Loading constellations...